Limon, CO

8:05 AM MST on November 20, 2019 (GMT -0700)
Limon Municipal

Weather History for KLIC - September, 2019

Change the Weather History Date:

Friday, September 20, 2019

  Actual Average Record
Temperature  
Mean Temperature 69 °F -  
Max Temperature 86 °F - 93 °F (2010)
Min Temperature 52 °F - 33 °F (1999)
Degree Days  
Heating Degree Days 0    
Month to date heating degree days 11  
Cooling Degree Days 4    
Month to date cooling degree days 76  
Growing Degree Days 18 (Base 50)    
Moisture  
Dew Point 41 °F    
Average Humidity 57    
Maximum Humidity 100    
Minimum Humidity 13    
Precipitation  
Precipitation 0.00 in - 0.27 in (2000)
Month to date precipitation 0.30  
Year to date precipitation 12.69  
Snow  
Snow 0.00 in - - ()
Snow Depth 0.00 in    
Sea Level Pressure  
Sea Level Pressure 29.71 in    
Wind  
Wind Speed 16 mph (South)    
Max Wind Speed 25 mph    
Max Gust Speed 35 mph    
Visibility 10 miles    
Events      
T = Trace of Precipitation, MM = Missing Value Source: NWS Daily Summary

Daily Weather History Graph

Daily Weather History Graph

Search for Another Location

Airport or City:

Astronomy

Sep. 20, 2019 Rise Set
Actual Time 6:40 AM MDT 6:55 PM MDT
Civil Twilight 6:13 AM MDT 7:21 PM MDT
Nautical Twilight 5:42 AM MDT 7:53 PM MDT
Astronomical Twilight 5:10 AM MDT 8:25 PM MDT
Moon 10:49 PM MDT 12:45 PM MDT
Length of Visible Light 13h 08m
Length of Day
12h 14m
Waning Gibbous, 64% of the Moon is Illuminated
Sep 20
Waning Gibbous
Sep 21
Last Quarter
Sep 28
New
Oct 5
First Quarter
Oct 13
Full

Hourly Weather History & Observations

Time (MDT) Temp. Dew Point Humidity Pressure Visibility Wind Dir Wind Speed Gust Speed Precip Events Conditions
12:55 AM 60.1 °F 53.1 °F 78% 29.75 in 10.0 mi SSE 18.4 mph 28.8 mph N/A   Partly Cloudy
1:55 AM 57.0 °F 53.1 °F 87% 29.75 in 10.0 mi SE 17.3 mph - N/A   Clear
2:55 AM 55.9 °F 53.1 °F 90% 29.73 in 10.0 mi SE 18.4 mph - N/A   Clear
3:55 AM 55.0 °F 54.0 °F 96% 29.72 in 10.0 mi SSE 15.0 mph - N/A   Clear
4:55 AM 54.0 °F 54.0 °F 100% 29.73 in 10.0 mi SSE 13.8 mph - N/A   Scattered Clouds
5:11 AM 54.0 °F 54.0 °F 100% 29.95 in 10.0 mi SSE 16.1 mph - N/A   Mostly Cloudy
5:55 AM 54.0 °F 54.0 °F 100% 29.74 in 10.0 mi SSE 13.8 mph - N/A   Overcast
6:02 AM 54.0 °F 54.0 °F 100% 29.96 in 10.0 mi SSE 12.7 mph - N/A   Overcast
6:31 AM 53.1 °F 53.1 °F 100% 29.95 in 10.0 mi SSE 12.7 mph - N/A   Scattered Clouds
6:55 AM 52.0 °F 52.0 °F 100% 29.76 in 10.0 mi SSE 8.1 mph - N/A   Clear
7:03 AM 52.0 °F 52.0 °F 100% 29.95 in 10.0 mi SSE 10.4 mph - N/A   Partly Cloudy
7:55 AM 57.9 °F 53.1 °F 84% 29.95 in 10.0 mi South 13.8 mph - N/A   Clear
8:55 AM 69.1 °F 51.1 °F 53% 29.70 in 10.0 mi SSW 15.0 mph 24.2 mph N/A   Clear
9:55 AM 75.0 °F 46.9 °F 37% 29.69 in 10.0 mi SSW 18.4 mph 27.6 mph N/A   Clear
10:55 AM 79.0 °F 43.0 °F 28% 29.66 in 10.0 mi SSW 15.0 mph 26.5 mph N/A   Clear
11:55 AM 81.0 °F 39.9 °F 23% 29.65 in 10.0 mi South 20.7 mph 32.2 mph N/A   Clear
12:55 PM 84.0 °F 37.0 °F 19% 29.62 in 10.0 mi SSW 20.7 mph 34.5 mph N/A   Clear
1:55 PM 82.9 °F 32.0 °F 16% 29.62 in 10.0 mi SW 13.8 mph 32.2 mph N/A   Clear
2:55 PM 84.0 °F 30.0 °F 14% 29.60 in 10.0 mi SSW 21.9 mph 32.2 mph N/A   Clear
3:55 PM 84.9 °F 28.0 °F 13% 29.59 in 10.0 mi South 16.1 mph 26.5 mph N/A   Clear
4:55 PM 84.0 °F 28.9 °F 14% 29.58 in 10.0 mi South 19.6 mph 28.8 mph N/A   Clear
5:55 PM 82.0 °F 28.0 °F 14% 29.58 in 10.0 mi South 13.8 mph 25.3 mph N/A   Clear
6:55 PM 75.9 °F 28.9 °F 18% 29.61 in 10.0 mi South 10.4 mph - N/A   Clear
7:55 PM 66.0 °F 28.0 °F 24% 29.63 in 10.0 mi South 9.2 mph - N/A   Clear
8:55 PM 64.0 °F 26.1 °F 24% 29.62 in 10.0 mi SSW 8.1 mph - N/A   Clear
9:55 PM 69.1 °F 24.1 °F 18% 29.62 in 10.0 mi SW 13.8 mph 23.0 mph N/A   Clear
10:55 PM 73.0 °F 21.9 °F 15% 29.63 in 10.0 mi WSW 17.3 mph 28.8 mph N/A   Clear
11:55 PM 68.0 °F 21.9 °F 17% 29.66 in 10.0 mi SW 10.4 mph - N/A   Clear